Weather History for Sharm El Sheikh, Egypt

Change the Weather History Date:

Friday, December 21, 2012

  Actual Average Record
Temperature  
Mean Temperature 68 °F -  
Max Temperature 77 °F - - ()
Min Temperature 59 °F - - ()
Cooling Degree Days 3    
Growing Degree Days 18 (Base 50)    
Moisture  
Dew Point 33 °F    
Average Humidity 30    
Maximum Humidity 42    
Minimum Humidity 18    
Precipitation  
Precipitation 0.00 in - - ()
Sea Level Pressure  
Sea Level Pressure 29.93 in    
Wind  
Wind Speed 8 mph ()    
Max Wind Speed 17 mph    
Max Gust Speed -    
Visibility 5.7 miles    
Events      
T = Trace of Precipitation, MM = Missing Value Source: Averaged Metar Reports

Daily Weather History Graph

Daily Weather History Graph

Search for Another Location

Airport:

Trip Planner

Search our weather history database for the weather conditions in past years. The results will help you decide how hot, cold, wet, or windy it might be!

Date:

Astronomy

Dec. 21, 2012 Rise Set
Actual Time 6:29 AM EET 4:51 PM EET
Civil Twilight 6:03 AM EET 5:17 PM EET
Nautical Twilight 5:34 AM EET 5:46 PM EET
Astronomical Twilight 5:05 AM EET 6:15 PM EET
Moon 12:08 PM EET (12/21) 12:18 AM EET (12/21)
Length of Visible Light 11h 13m
Length of Day
10h 22m
First Quarter, 62% of the Moon is Illuminated
Dec 21
First Quarter
Dec 28
Full
Jan 5
Last Quarter
Jan 11
New
Jan 19
First Quarter

Hourly Weather History & Observations

Time (EET) Temp. Dew Point Humidity Pressure Visibility Wind Dir Wind Speed Gust Speed Precip Events Conditions
12:00 AM 62.6 °F 30.2 °F 30% 29.92 in - West 11.5 mph - N/A   Clear
1:00 AM 62.6 °F 30.2 °F 30% 29.92 in - West 15.0 mph - N/A   Clear
2:00 AM 62.6 °F 30.2 °F 30% 29.89 in - West 17.3 mph - N/A   Clear
3:00 AM 62.6 °F 30.2 °F 30% 29.89 in - West 12.7 mph - N/A   Clear
4:00 AM 60.8 °F 32.0 °F 34% 29.89 in - West 13.8 mph - N/A   Clear
5:00 AM 60.8 °F 32.0 °F 34% 29.89 in - West 12.7 mph - N/A   Clear
6:00 AM 60.8 °F 32.0 °F 34% 29.92 in - West 10.4 mph - N/A   Clear
7:00 AM 60.8 °F 33.8 °F 36% 29.92 in 6.2 mi West 10.4 mph - N/A   Partly Cloudy
8:00 AM 62.6 °F 32.0 °F 32% 29.95 in 5.0 mi West 9.2 mph - N/A   Partly Cloudy
9:00 AM 66.2 °F 32.0 °F 28% 29.95 in 5.0 mi WNW 9.2 mph - N/A   Unknown
10:00 AM 69.8 °F 33.8 °F 27% 29.95 in 5.0 mi WNW 4.6 mph - N/A   Unknown
11:00 AM 77.0 °F 30.2 °F 18% 29.95 in 5.0 mi SE 4.6 mph - N/A   Unknown
12:00 PM 75.2 °F 33.8 °F 22% 29.92 in 5.0 mi SSE 4.6 mph - N/A   Unknown
1:00 PM 75.2 °F 33.8 °F 22% 29.92 in 6.2 mi SE 6.9 mph - N/A   Partly Cloudy
2:00 PM 77.0 °F 32.0 °F 19% 29.89 in 6.2 mi SE 4.6 mph - N/A   Partly Cloudy
3:00 PM 75.2 °F 33.8 °F 22% 29.92 in 6.2 mi East 5.8 mph - N/A   Partly Cloudy
4:00 PM 69.8 °F 33.8 °F 27% 29.92 in 6.2 mi East 5.8 mph - N/A   Partly Cloudy
5:00 PM 66.2 °F 33.8 °F 30% 29.92 in 6.2 mi ENE 2.3 mph - N/A   Partly Cloudy
6:00 PM 64.4 °F 33.8 °F 32% 29.95 in - NNW 3.5 mph - N/A   Clear
7:00 PM 62.6 °F 35.6 °F 37% 29.98 in - WNW 3.5 mph - N/A   Clear
8:00 PM 62.6 °F 33.8 °F 34% 29.98 in - West 3.5 mph - N/A   Clear
9:00 PM 60.8 °F 33.8 °F 36% 29.98 in - WNW 4.6 mph - N/A   Clear
10:00 PM 59.0 °F 33.8 °F 39% 30.01 in - WNW 3.5 mph - N/A   Clear
11:00 PM 59.0 °F 35.6 °F 42% 30.01 in - Variable 3.5 mph - N/A   Clear